Frontier, WY

8:01 AM MDT on August 27, 2016 (GMT -0600)
Kemmerer Municipal

Weather History for KEMM - February, 2014

Change the Weather History Date:

Tuesday, February 25, 2014

  Actual Average Record
Temperature  
Mean Temperature 36 °F -  
Max Temperature 41 °F 35 °F 54 °F (1981)
Min Temperature 28 °F 7 °F -11 °F (1952)
Degree Days  
Heating Degree Days 30    
Moisture  
Dew Point 30 °F    
Average Humidity 78    
Maximum Humidity 100    
Minimum Humidity 65    
Precipitation  
Precipitation 0.00 in - - ()
Sea Level Pressure  
Sea Level Pressure 30.03 in    
Wind  
Wind Speed 15 mph (WNW)    
Max Wind Speed 33 mph    
Max Gust Speed 38 mph    
Visibility 10 miles    
Events      
Averages and records for this station are not official NWS values.
T = Trace of Precipitation, MM = Missing Value Source: NWS Daily Summary

Daily Weather History Graph

Daily Weather History Graph

Search for Another Location

Airport or City:

Trip Planner

Search our weather history database for the weather conditions in past years. The results will help you decide how hot, cold, wet, or windy it might be!

Date:

Astronomy

Feb. 25, 2014 Rise Set
Actual Time 7:03 AM MST 6:07 PM MST
Civil Twilight 6:35 AM MST 6:35 PM MST
Nautical Twilight 6:02 AM MST 7:08 PM MST
Astronomical Twilight 5:30 AM MST 7:40 PM MST
Moon 4:03 AM MST (2/25) 2:15 PM MST (2/25)
Length of Visible Light 12h 00m
Length of Day
11h 04m
Waning Crescent, 17% of the Moon is Illuminated
Feb 25
Waning Crescent
Mar 1
New
Mar 8
First Quarter
Mar 16
Full
Mar 23
Last Quarter

Hourly Weather History & Observations

Time (MST) Temp. Windchill Dew Point Humidity Pressure Visibility Wind Dir Wind Speed Gust Speed Precip Events Conditions
12:10 AM 30.2 °F 26.7 °F 24.8 °F 80% 30.05 in 10.0 mi WSW 3.5 mph - N/A   Mostly Cloudy
8:35 AM 32.0 °F - 24.8 °F 75% 30.01 in 10.0 mi Calm Calm - N/A   Overcast
8:55 AM 33.8 °F 24.8 °F 26.6 °F 75% 30.00 in 10.0 mi West 12.7 mph - N/A   Overcast
9:15 AM 33.8 °F 24.8 °F 26.6 °F 75% 30.01 in 10.0 mi West 12.7 mph - N/A   Overcast
9:35 AM 33.8 °F 23.9 °F 26.6 °F 75% 30.01 in 10.0 mi West 15.0 mph - N/A   Mostly Cloudy
9:55 AM 35.6 °F 24.8 °F 28.4 °F 75% 30.01 in 10.0 mi West 19.6 mph 25.3 mph N/A   Overcast
10:15 AM 37.4 °F 26.4 °F 28.4 °F 70% 30.00 in 10.0 mi West 23.0 mph 27.6 mph N/A   Scattered Clouds
10:35 AM 37.4 °F 26.6 °F 28.4 °F 70% 30.00 in 10.0 mi West 21.9 mph 27.6 mph N/A   Clear
10:55 AM 41.0 °F 31.4 °F 30.2 °F 65% 30.01 in 10.0 mi West 21.9 mph 27.6 mph N/A   Clear
11:15 AM 41.0 °F 31.4 °F 30.2 °F 65% 30.01 in 10.0 mi West 21.9 mph 27.6 mph N/A   Clear
11:35 AM 41.0 °F 31.1 °F 30.2 °F 65% 30.01 in 10.0 mi West 23.0 mph 31.1 mph N/A   Clear
11:55 AM 39.2 °F 28.3 °F 30.2 °F 70% 30.01 in 10.0 mi West 25.3 mph 31.1 mph N/A   Scattered Clouds
12:15 PM 41.0 °F 31.9 °F 30.2 °F 65% 30.00 in 10.0 mi West 19.6 mph - N/A   Scattered Clouds
12:35 PM 41.0 °F 30.0 °F 32.0 °F 70% 29.99 in 10.0 mi West 28.8 mph 38.0 mph N/A   Scattered Clouds
12:55 PM 41.0 °F 29.3 °F 32.0 °F 70% 29.99 in 10.0 mi West 33.4 mph 36.8 mph N/A   Clear
1:15 PM 39.2 °F 27.4 °F 32.0 °F 75% 29.98 in 10.0 mi West 29.9 mph 34.5 mph N/A   Clear
1:35 PM 41.0 °F 30.0 °F 32.0 °F 70% 29.99 in 10.0 mi West 28.8 mph 38.0 mph N/A   Clear
1:55 PM 41.0 °F 31.4 °F 32.0 °F 70% 30.00 in 10.0 mi WNW 21.9 mph 28.8 mph N/A   Clear
2:15 PM 41.0 °F 31.9 °F 30.2 °F 65% 30.00 in 10.0 mi WNW 19.6 mph 28.8 mph N/A   Mostly Cloudy
2:35 PM 41.0 °F 32.5 °F 32.0 °F 70% 30.01 in 10.0 mi WNW 17.3 mph - N/A   Scattered Clouds
2:55 PM 39.2 °F 27.6 °F 32.0 °F 75% 30.00 in 10.0 mi West 28.8 mph 33.4 mph N/A   Clear
3:15 PM 37.4 °F 25.2 °F 32.0 °F 81% 30.00 in 10.0 mi West 28.8 mph - N/A   Clear
3:35 PM 37.4 °F 26.1 °F 32.0 °F 81% 30.00 in 10.0 mi West 24.2 mph 35.7 mph N/A   Clear
3:55 PM 37.4 °F 26.9 °F 32.0 °F 81% 30.01 in 10.0 mi WNW 20.7 mph 27.6 mph N/A   Clear
4:15 PM 37.4 °F 28.2 °F 32.0 °F 81% 30.02 in 10.0 mi WNW 16.1 mph 23.0 mph N/A   Clear
4:35 PM 37.4 °F 29.3 °F 32.0 °F 81% 30.04 in 10.0 mi WNW 12.7 mph - N/A   Scattered Clouds
4:55 PM 37.4 °F - 32.0 °F 81% 30.05 in 10.0 mi Calm Calm - N/A   Mostly Cloudy
5:15 PM 35.6 °F 31.7 °F 32.0 °F 87% 30.06 in 10.0 mi WNW 4.6 mph - N/A   Overcast
5:35 PM 35.6 °F 28.0 °F 32.0 °F 87% 30.05 in 10.0 mi WNW 10.4 mph - N/A   Overcast
5:55 PM 33.8 °F 24.8 °F 32.0 °F 93% 30.04 in 10.0 mi West 12.7 mph - N/A   Scattered Clouds
6:15 PM 33.8 °F 26.4 °F 32.0 °F 93% 30.06 in 10.0 mi WNW 9.2 mph - N/A   Clear
6:35 PM 33.8 °F 27.0 °F 32.0 °F 93% 30.06 in 10.0 mi WNW 8.1 mph - N/A   Clear
6:55 PM 32.0 °F 27.5 °F 32.0 °F 100% 30.07 in 10.0 mi North 4.6 mph - N/A   Clear
7:15 PM 32.0 °F 23.0 °F 32.0 °F 100% 30.06 in 10.0 mi NW 11.5 mph - N/A   Scattered Clouds
7:35 PM 32.0 °F 25.6 °F 30.2 °F 93% 30.07 in 10.0 mi North 6.9 mph - N/A   Scattered Clouds
8:15 PM 32.0 °F 26.4 °F 28.4 °F 87% 30.09 in 10.0 mi NE 5.8 mph - N/A   Mostly Cloudy
8:30 PM 32.0 °F 22.1 °F 26.6 °F 80% 30.09 in 10.0 mi North 13.8 mph - N/A   Mostly Cloudy
9:10 PM 28.4 °F 21.2 °F 24.8 °F 86% 30.10 in 10.0 mi NNE 6.9 mph - N/A   Overcast